Dewpoint
41 41 42 43 44 46 47 47 47 46 46 46 46 46 46 46 46 47 48 49 50 51 50 50 50 50 51 51 54 57 59 60 61 61 61 61 61 61 61 61 61 62 62 62 63 63 63 63 62 61 61 61 61 61 61 61 61 61 62 62 62 62 62 61 61 60 60 60 59
40 41 42 43 44 46 47 49 49 49 49 48 47 47 47 46 47 47 48 50 51 51 51 50 50 50 50 50 52 56 59 60 60 60 60 61 61 61 60 60 61 61 62 62 62 63 63 63 63 62 61 61 61 61 61 61 61 61 61 61 61 62 61 60 60 60 60 60 59
41 42 42 43 45 46 47 49 50 51 50 50 50 49 48 48 47 48 49 50 51 51 51 51 51 51 50 50 51 55 58 60 59 59 59 60 60 60 60 60 60 60 61 62 62 63 63 64 63 62 61 61 61 61 60 61 61 61 61 61 61 62 61 60 59 59 59 59 59
43 43 43 43 44 45 46 48 48 49 50 51 51 51 51 50 49 49 50 51 51 52 52 52 52 53 53 52 52 54 56 58 58 59 59 59 59 60 60 60 60 60 60 62 62 62 63 63 63 62 62 61 61 61 61 61 60 60 60 60 61 62 62 60 59 58 58 58 58
43 44 44 43 43 44 45 46 47 48 49 51 51 51 51 51 51 51 51 51 51 51 52 53 52 53 55 54 52 52 54 57 57 57 58 58 59 59 60 60 60 60 60 61 62 62 63 63 63 62 62 61 61 60 60 60 60 60 60 60 61 61 62 63 60 59 57 57 58
44 44 45 45 45 45 45 46 46 47 48 50 51 51 51 51 51 51 51 51 51 51 51 53 53 53 53 53 52 51 51 54 57 58 58 58 58 59 59 60 60 60 60 60 61 62 63 63 63 62 61 61 60 59 59 60 60 60 60 60 61 61 62 63 60 59 57 57 57
45 45 46 46 46 46 46 46 47 47 48 49 50 50 50 50 51 51 51 51 51 51 51 52 52 53 53 52 52 51 51 51 55 58 59 58 58 58 58 59 60 60 60 60 60 61 62 63 62 62 61 60 59 59 59 60 60 60 60 59 60 61 61 62 60 58 57 57 56
46 46 46 47 47 48 48 48 48 48 48 48 49 49 49 50 50 51 51 51 51 51 51 52 53 53 53 53 53 53 53 53 55 57 58 58 58 58 58 59 60 60 60 60 60 61 62 62 63 62 61 60 59 58 59 59 60 60 60 59 59 59 59 57 56 56 57 56 56
46 47 47 47 47 48 48 49 49 49 49 49 49 49 49 49 50 51 51 50 50 49 50 52 53 53 53 53 54 55 55 55 55 57 58 59 59 58 58 59 59 59 59 59 60 60 61 62 62 62 61 60 59 58 58 58 59 59 59 58 58 58 58 57 56 56 56 56 56
46 46 47 47 47 47 48 48 49 49 49 49 49 49 49 48 49 50 50 50 49 48 49 50 52 53 53 53 54 54 55 55 55 56 57 56 58 59 59 59 59 59 59 59 59 60 60 60 61 61 61 60 59 58 58 58 58 58 58 57 57 57 57 57 57 56 56 56 56
46 46 47 47 47 47 48 48 48 48 48 49 50 50 49 48 49 49 50 50 49 49 48 48 50 51 51 51 51 51 53 55 55 56 56 55 55 57 59 60 59 59 60 59 59 59 59 59 60 60 60 60 59 58 58 58 58 58 58 57 57 56 57 57 56 56 56 56 56
46 47 47 47 47 47 48 47 48 48 49 49 50 51 50 50 50 51 51 51 51 50 48 48 48 49 49 50 49 50 51 53 53 54 54 53 53 55 57 59 59 60 60 60 59 59 58 58 58 59 60 60 60 59 58 57 57 58 58 58 57 57 57 56 56 56 55 56 56
47 48 48 48 48 48 48 48 48 49 49 50 51 51 51 51 51 51 52 52 51 50 49 48 48 48 48 48 48 48 49 50 51 51 51 51 51 52 54 56 58 59 60 60 59 59 58 58 58 58 59 60 60 59 58 57 57 57 57 58 58 58 57 56 56 56 56 57 57
48 48 48 48 48 48 48 48 49 49 50 50 51 51 51 51 51 51 51 51 51 50 49 49 49 48 47 47 47 47 47 48 49 50 50 49 50 51 52 55 57 59 60 60 59 59 58 57 57 58 58 59 59 59 58 57 56 56 57 58 58 57 57 56 56 56 56 56 57
49 49 49 49 49 49 49 49 49 50 50 51 52 51 51 51 51 51 51 51 50 50 50 50 49 48 47 47 47 46 47 47 48 48 49 48 48 49 51 53 55 58 59 59 59 58 58 57 57 57 57 58 59 59 58 56 56 56 56 57 57 57 57 57 56 56 56 56 55
50 50 50 50 49 49 49 49 49 50 50 51 52 52 52 51 51 51 51 51 50 50 50 49 49 49 48 48 47 47 47 47 47 47 48 48 48 48 49 51 54 57 59 59 59 58 58 57 57 57 57 57 58 58 58 57 55 55 56 56 57 57 57 57 56 56 55 55 55
51 51 51 50 50 50 50 50 50 50 51 51 52 53 53 53 53 52 52 51 51 51 50 50 49 49 49 49 48 48 48 48 47 47 47 47 48 48 48 50 52 55 58 59 59 58 58 57 57 57 57 57 57 58 58 57 56 55 55 56 56 57 57 56 55 55 55 55 55
50 51 52 51 51 50 50 50 51 51 51 52 53 53 54 53 54 53 53 53 52 52 51 51 50 50 50 50 50 49 49 48 48 48 47 47 47 48 48 49 51 54 56 59 59 58 58 58 57 57 57 57 58 58 58 57 56 55 55 55 56 56 56 56 55 56 56 55 55
49 51 52 52 51 51 51 51 51 51 52 53 53 53 53 53 53 53 53 53 53 53 52 52 52 52 51 51 50 49 48 48 48 48 47 47 48 48 49 49 51 54 55 57 58 58 58 58 58 57 57 57 58 58 58 58 57 57 56 55 56 56 57 56 56 56 56 55 55
47 50 51 52 52 52 52 52 52 53 53 53 53 53 53 53 54 54 54 54 54 54 54 54 54 54 54 53 51 50 49 48 48 48 47 47 48 48 49 50 52 55 56 57 58 58 58 59 58 58 57 57 57 58 58 59 59 58 58 57 57 57 57 57 57 57 57 56 56
47 48 50 52 53 53 53 53 53 53 54 54 54 54 54 54 54 54 54 54 55 55 55 55 55 55 55 54 52 50 49 48 48 48 48 48 48 49 49 49 52 55 56 57 57 58 58 58 58 58 58 57 57 58 58 59 59 59 59 58 58 58 58 58 58 58 58 58 57
46 47 49 51 52 53 53 53 53 54 54 54 54 54 55 55 55 55 55 55 55 55 55 55 55 55 54 53 51 50 49 48 48 48 48 48 49 49 50 51 53 55 56 56 57 57 58 58 58 58 58 57 57 58 58 59 59 59 59 59 59 59 59 59 59 59 59 59 59
46 47 48 49 51 52 53 54 54 54 54 55 55 55 55 55 55 55 55 55 55 55 55 55 54 54 53 52 51 51 50 50 50 49 49 49 50 51 51 53 54 55 56 56 56 57 58 58 58 58 58 58 57 57 58 59 59 60 59 58 59 59 59 59 59 60 60 59 59
45 46 47 49 50 52 53 54 54 54 54 55 55 55 55 55 55 55 55 55 55 55 55 54 53 53 53 53 53 52 52 51 51 51 51 51 51 52 53 55 55 56 56 56 56 56 56 57 58 59 58 58 58 58 58 59 60 60 59 59 59 59 59 60 60 60 60 60 60
44 45 46 47 49 51 52 54 54 54 54 54 54 55 55 55 55 55 55 55 55 55 54 54 53 53 54 54 54 54 53 52 52 52 52 52 53 53 54 55 56 56 56 55 52 51 52 53 56 58 59 59 58 58 59 60 60 60 60 60 59 59 60 60 60 60 60 60 60
44 44 45 46 48 50 51 53 54 55 55 55 54 54 55 55 55 55 55 55 55 54 54 54 53 53 53 54 54 54 54 53 52 52 52 52 53 54 55 55 56 56 56 54 50 49 49 50 51 53 56 59 59 59 60 60 60 60 60 60 60 60 60 60 60 60 60 60 60
43 44 45 46 47 50 51 53 54 55 55 55 55 55 55 55 55 55 54 54 54 54 54 53 53 52 52 54 54 54 54 53 53 52 52 52 53 54 54 55 56 56 55 51 48 47 47 48 49 50 53 58 59 59 60 60 60 60 60 60 60 60 60 60 60 60 60 60 60
42 43 44 45 46 48 51 53 54 54 54 55 55 55 55 55 55 55 54 54 54 54 54 53 53 53 53 54 54 54 54 54 53 53 52 52 53 53 54 56 57 56 53 50 47 46 46 46 48 48 50 53 58 60 60 60 60 60 60 60 60 60 60 60 60 60 60 60 60
42 42 43 44 45 47 49 52 53 54 55 54 55 55 55 55 55 55 54 54 54 53 53 53 53 54 54 54 54 54 54 54 53 53 52 52 53 53 55 56 56 55 51 47 47 46 46 46 47 47 48 50 55 59 60 60 60 60 60 60 60 59 59 59 60 60 59 59 59
41 42 42 43 44 46 47 50 52 54 55 55 55 55 55 55 54 54 54 53 53 53 53 53 53 54 54 53 54 54 54 54 54 53 53 52 53 54 55 56 57 55 51 46 46 46 46 46 46 47 47 47 52 57 60 60 60 60 60 60 59 59 59 59 59 59 59 59 59
40 41 42 42 43 45 46 49 51 53 54 55 54 54 54 54 54 54 53 53 53 53 53 53 53 53 53 53 54 54 54 54 54 54 53 53 53 54 55 56 56 55 51 46 46 46 47 47 47 46 46 46 50 55 59 59 59 60 60 60 59 59 58 58 59 59 59 58 58
39 40 41 42 42 44 46 47 50 52 54 54 54 54 53 53 53 53 54 53 53 53 53 53 53 53 53 53 54 54 54 54 54 54 54 54 54 55 55 55 56 55 51 46 46 46 47 47 47 46 46 46 49 54 57 59 59 59 60 60 60 59 58 59 59 58 58 58 58
38 39 41 42 42 43 45 47 50 52 53 54 54 53 53 52 53 53 53 53 53 53 53 53 53 53 53 53 53 54 54 54 54 54 53 54 55 55 55 55 55 54 51 47 46 46 46 47 47 47 46 45 49 53 56 58 59 60 60 60 60 59 58 58 58 58 58 58 58
38 39 40 41 42 43 44 46 49 51 53 53 53 53 52 52 52 52 53 53 53 53 53 53 53 53 53 53 53 54 54 53 54 54 54 54 55 55 55 55 55 53 50 48 46 45 45 46 46 47 46 45 50 53 56 57 58 59 60 60 60 59 59 58 58 58 58 59 58
37 38 39 40 42 42 44 45 47 50 52 53 53 53 52 52 52 52 52 52 52 53 54 54 54 54 54 54 54 54 53 53 54 54 54 54 55 55 55 55 55 52 48 47 46 45 45 46 46 46 46 46 51 54 55 56 57 58 59 59 59 59 59 59 59 59 59 59 58
37 38 39 40 41 42 43 44 46 49 51 52 53 53 52 52 52 52 52 51 52 53 53 54 54 54 53 53 53 53 53 53 54 54 54 54 55 55 55 55 55 52 48 46 46 45 45 45 46 46 46 49 53 55 55 56 57 57 58 58 59 59 59 59 59 59 59 59 58
37 37 38 39 41 42 43 44 45 47 50 51 52 52 53 53 53 53 52 51 52 53 53 53 53 53 53 53 53 53 52 53 54 54 54 54 54 55 55 55 55 53 48 45 45 44 45 45 45 45 47 51 54 55 56 56 57 57 57 58 58 59 59 59 59 59 59 58 58
37 37 38 39 40 41 42 43 44 46 47 50 52 52 53 53 53 53 52 51 52 53 53 53 53 53 53 54 53 53 53 53 53 53 54 54 54 54 54 55 55 54 50 44 44 44 44 45 45 46 48 53 55 55 56 56 57 57 57 57 58 58 59 59 59 59 58 58 54
36 37 38 38 40 41 42 43 43 44 46 48 50 52 53 53 53 53 53 52 53 53 53 53 53 53 53 53 53 54 54 53 53 54 54 55 54 53 53 54 55 54 51 44 43 43 44 45 45 46 48 53 55 56 56 56 57 57 57 57 57 57 58 58 58 58 58 57 51
36 37 37 38 39 40 42 42 43 44 45 46 47 50 52 53 52 53 53 53 53 53 53 53 53 53 53 51 53 53 54 54 54 54 54 54 54 52 51 54 55 55 51 45 42 42 43 44 45 46 48 54 55 56 56 56 56 56 56 56 56 56 56 57 57 57 57 56 51
36 37 37 37 38 40 41 42 43 43 44 45 46 48 50 52 52 53 53 54 54 54 54 54 54 54 53 51 52 53 54 54 54 55 54 54 53 52 51 54 55 55 53 48 42 42 42 44 44 46 48 54 56 57 57 56 56 55 55 56 56 55 55 55 55 55 55 55 54